GW5164 Weather Reports


time (UTC)temp
C
wind
direction
speed
KPH
gust
KPH
rain 1hr
cm
rain 24hr
cm
rain mn
cm
humidity
%
barometer
mb
20260906071605 20 269 1.6 1.6 0.00 0.58 0.00 95 1011.6
20260906070107 20 318 0.0 4.8 0.00 0.58 0.00 95 1011.9
20260906064605 20 0 0.0 0.0 0.00 0.58 0.00 95 1012.1
20260906063103 20 0 0.0 0.0 0.00 0.58 0.00 95 1012.2
20260906061610 20 0 0.0 0.0 0.00 0.58 0.00 95 1012.5
20260906060112 20 0 0.0 0.0 0.00 0.58 0.00 95 1012.7
20260906054607 20 0 0.0 0.0 0.00 0.58 0.00 95 1012.8
20260906053104 20 0 0.0 1.6 0.00 0.58 0.00 95 1012.9
20260906051606 20 0 0.0 0.0 0.00 0.58 0.00 94 1013.0
20260906050108 21 0 0.0 0.0 0.00 0.58 0.00 94 1013.2
20260906044606 21 0 0.0 0.0 0.00 0.58 0.00 95 1013.2
20260906043102 21 283 1.6 1.6 0.00 0.58 0.00 94 1013.2
20260906041605 21 326 1.6 3.2 0.00 0.58 0.00 95 1013.4
20260906040105 21 0 0.0 1.6 0.00 0.58 0.00 95 1013.5
20260906034611 21 0 0.0 1.6 0.00 0.58 0.58 94 1013.3
20260906033105 21 337 0.0 0.0 0.00 0.58 0.58 95 1013.6
20260906031607 21 0 0.0 3.2 0.00 0.58 0.58 94 1013.6
20260906030059 21 0 0.0 3.2 0.00 0.58 0.58 94 1013.4
20260906024608 21 0 0.0 0.0 0.00 0.58 0.58 93 1013.2
20260906023102 21 267 1.6 3.2 0.00 0.58 0.58 93 1013.2
20260906021608 22 0 0.0 3.2 0.00 0.58 0.58 93 1013.2
20260906020124 22 0 1.6 3.2 0.00 0.58 0.58 93 1013.0
20260906014604 22 120 0.0 1.6 0.00 0.58 0.58 92 1013.2
20260906013108 22 0 1.6 4.8 0.00 0.58 0.58 92 1013.1
20260906011559 22 0 0.0 1.6 0.00 0.58 0.58 92 1012.8
20260906010106 23 245 0.0 1.6 0.00 0.58 0.58 91 1012.7
20260906004604 23 248 0.0 3.2 0.00 0.58 0.58 90 1012.6
20260906003124 23 0 0.0 0.0 0.00 0.58 0.58 89 1012.4
20260906001617 24 0 0.0 1.6 0.00 0.58 0.58 86 1012.1
20260906000108 25 0 0.0 3.2 0.00 0.58 0.58 83 1011.9
20260905234606 26 37 0.0 1.6 0.00 0.58 0.58 80 1011.9
20260905233107 28 0 0.0 0.0 0.00 0.58 0.58 71 1011.6
20260905231604 30 0 0.0 1.6 0.00 0.58 0.58 68 1011.6
20260905230112 29 0 0.0 1.6 0.00 0.58 0.58 72 1011.7
20260905224611 29 107 1.6 4.8 0.00 0.58 0.58 69 1011.6
20260905223104 28 319 1.6 11.3 0.00 0.58 0.58 68 1011.6
20260905221607 28 338 4.8 9.7 0.00 0.58 0.58 67 1011.7
20260905220109 28 263 4.8 9.7 0.00 0.58 0.58 66 1011.7
20260905214603 28 271 1.6 9.7 0.00 0.58 0.58 67 1012.0
20260905213105 28 205 4.8 9.7 0.00 0.58 0.58 68 1012.2
20260905211630 28 261 1.6 8.0 0.00 0.58 0.58 72 1012.2
20260905210120 28 289 3.2 11.3 0.00 0.58 0.58 71 1012.1
20260905204605 27 226 1.6 4.8 0.00 0.58 0.58 79 1012.2
20260905203119 27 215 1.6 8.0 0.00 0.58 0.58 80 1012.2
20260905201604 27 0 1.6 4.8 0.00 0.58 0.58 79 1012.5
20260905194608 27 311 3.2 6.4 0.00 0.58 0.58 72 1012.6
20260905193108 26 335 1.6 4.8 0.00 0.58 0.58 76 1012.4
20260905191605 26 220 3.2 9.7 0.00 0.58 0.58 82 1012.7
20260905184603 25 326 1.6 6.4 0.00 0.58 0.58 88 1012.1
20260905183108 23 0 0.0 6.4 0.18 0.58 0.58 90 1012.6
20260905181612 23 227 1.6 6.4 0.43 0.58 0.58 90 1012.8
20260905180100 23 0 0.0 3.2 0.58 0.58 0.58 88 1013.3
20260905174604 24 0 0.0 16.1 0.58 0.58 0.58 85 1014.2
20260905173103 26 221 4.8 24.1 0.41 0.41 0.41 76 1014.6
20260905171603 31 223 6.4 14.5 0.13 0.13 0.13 70 1013.9
20260905170105 33 285 6.4 14.5 0.00 0.00 0.00 57 1013.8
20260905164606 33 296 3.2 11.3 0.00 0.00 0.00 56 1014.0
20260905163108 33 319 9.7 16.1 0.00 0.00 0.00 57 1014.1
20260905161604 33 209 8.0 14.5 0.00 0.00 0.00 54 1014.1
20260905160134 33 285 6.4 11.3 0.00 0.00 0.00 54 1014.5
20260905154602 33 357 6.4 9.7 0.00 0.00 0.00 55 1014.5
20260905153103 32 269 4.8 8.0 0.00 0.00 0.00 57 1014.4
20260905151608 32 44 3.2 9.7 0.00 0.00 0.00 58 1014.2
20260905150101 32 237 3.2 11.3 0.00 0.00 0.00 60 1014.3
20260905144605 31 267 4.8 11.3 0.00 0.00 0.00 62 1014.4
20260905143108 31 259 3.2 9.7 0.00 0.00 0.00 64 1014.5
20260905141603 30 262 4.8 8.0 0.00 0.00 0.00 65 1014.3
20260905140105 30 272 1.6 4.8 0.00 0.00 0.00 70 1014.3
20260905134617 30 133 0.0 1.6 0.00 0.00 0.00 70 1014.3
20260905133101 27 0 0.0 3.2 0.00 0.00 0.00 77 1014.6
20260905131606 26 110 0.0 1.6 0.00 0.00 0.00 82 1014.8
20260905130059 25 113 0.0 1.6 0.00 0.00 0.00 86 1014.8
20260905124558 23 113 0.0 1.6 0.00 0.00 0.00 87 1014.8
20260905123105 23 0 0.0 0.0 0.00 0.00 0.00 90 1014.7
20260905121601 22 0 0.0 0.0 0.00 0.00 0.00 92 1014.6
20260905120120 21 0 0.0 0.0 0.00 0.00 0.00 94 1014.4
20260905114605 21 0 0.0 0.0 0.00 0.00 0.00 93 1014.3
20260905113101 20 0 0.0 0.0 0.00 0.00 0.00 94 1014.1
20260905111611 20 0 0.0 0.0 0.00 0.00 0.00 94 1014.0
20260905110104 20 0 0.0 0.0 0.00 0.00 0.00 94 1013.8
20260905104603 20 0 0.0 0.0 0.00 0.00 0.00 94 1013.7
20260905103102 20 0 0.0 0.0 0.00 0.00 0.00 94 1013.8
20260905101606 20 0 0.0 1.6 0.00 0.00 0.00 94 1013.6
20260905100059 20 0 0.0 0.0 0.00 0.00 0.00 93 1013.6
20260905094558 21 0 0.0 1.6 0.00 0.00 0.00 94 1013.4
20260905093102 20 0 0.0 0.0 0.00 0.00 0.00 93 1013.4
20260905091621 21 0 0.0 0.0 0.00 0.00 0.00 93 1013.5
20260905090120 21 0 0.0 0.0 0.00 0.00 0.00 93 1013.5
20260905084610 21 0 0.0 0.0 0.00 0.00 0.00 93 1013.6
20260905083101 21 0 0.0 0.0 0.00 0.00 0.00 93 1013.9
20260905081556 21 348 0.0 1.6 0.00 0.00 0.00 92 1014.0
20260905080101 21 0 0.0 1.6 0.00 0.00 0.00 92 1014.1
20260905074603 21 0 0.0 1.6 0.00 0.00 0.00 92 1014.3
20260905073104 21 338 1.6 3.2 0.00 0.00 0.00 91 1014.3